Wind_Speed
19 18 21 23 20 19 17 16 15 15 15 15 15 16 16 15 15 13 12 10 9 7 6 6 6 6 7 8 8 9 11 12 12 13 14 17 18 18 17 17 16 16 15 15 15 15 15 15 14 14 15 15 14 14 14 13 13 14 15 15 14 14 14 14 14 14 14 15 14 14 13 12 12 11 10 10 10 10 11 11 11 9 11 12 12
21 19 21 23 21 19 17 16 15 15 14 15 16 16 16 16 15 14 12 11 9 8 6 6 6 7 8 8 8 10 11 12 13 14 16 18 19 19 18 17 17 16 16 15 16 16 16 15 15 16 16 16 15 14 14 13 13 14 15 15 15 14 15 14 14 14 14 14 14 13 12 11 11 10 9 9 9 9 9 10 9 9 11 11 11
21 18 22 24 21 19 17 16 15 15 14 15 16 16 17 16 15 14 13 11 9 8 7 7 7 8 9 8 8 9 11 12 14 15 17 20 20 20 19 18 17 16 16 16 16 16 16 16 15 16 17 16 15 15 14 13 13 14 14 15 14 14 15 15 14 13 13 14 13 12 11 9 9 9 9 8 7 6 7 8 7 7 9 9 10
20 17 21 24 21 20 17 16 15 14 14 15 16 17 17 16 15 14 13 11 10 9 7 8 8 10 9 8 8 9 11 12 14 16 18 20 21 20 19 18 17 16 16 16 16 17 17 16 16 16 16 16 15 15 15 14 14 13 14 14 14 14 14 15 14 13 13 12 12 11 9 7 6 6 5 5 5 5 5 5 6 7 8 9 9
20 16 21 25 21 20 17 16 15 14 14 14 16 17 17 16 16 14 13 12 11 9 8 9 10 11 10 9 9 9 11 12 14 16 18 20 21 20 20 19 17 16 16 17 17 17 17 16 16 16 15 15 15 15 15 14 13 13 13 14 14 14 13 13 12 11 10 9 11 10 8 7 4 4 3 2 2 3 4 6 7 8 9 9 10
19 16 21 25 22 20 17 16 15 14 14 14 16 17 17 16 16 14 13 12 11 10 10 10 11 11 10 9 9 9 11 12 14 16 18 20 20 19 20 19 18 16 16 16 16 16 16 16 15 15 15 15 15 15 15 14 13 12 13 13 13 13 11 10 10 9 8 10 11 9 8 8 5 4 3 2 2 3 6 7 8 10 10 10 12
19 16 20 24 22 20 18 16 14 14 14 14 15 15 16 16 15 14 13 12 11 11 11 11 12 11 10 10 9 9 11 12 14 16 18 19 18 18 19 20 18 16 16 16 16 16 16 16 15 15 15 15 14 14 14 14 13 12 12 11 10 9 8 8 8 7 10 11 9 8 8 8 6 5 4 4 6 6 7 9 10 11 12 13 14
18 16 18 21 21 20 18 16 14 14 14 15 15 15 16 15 15 14 13 13 11 11 12 12 12 11 10 10 10 10 11 12 13 16 18 18 17 17 18 19 18 17 16 15 15 15 15 15 15 15 14 14 14 12 12 12 11 11 10 10 9 7 7 8 7 7 10 11 9 10 10 9 9 8 9 10 10 11 11 11 12 13 14 16 17
16 17 17 17 20 20 17 15 14 14 14 14 15 15 15 15 15 14 13 13 12 12 12 13 12 11 11 10 10 10 11 12 13 15 18 18 17 17 17 18 19 17 16 15 14 14 13 13 13 13 13 12 12 11 10 10 10 10 10 9 8 8 9 8 9 11 12 11 11 12 11 12 12 11 13 14 13 14 14 13 13 15 16 18 19
15 18 17 14 18 20 16 15 14 13 13 13 14 14 15 14 14 14 14 14 13 13 13 13 13 12 11 11 10 10 11 12 12 14 16 16 16 16 16 17 18 17 16 14 14 13 13 12 11 12 12 11 10 10 9 9 9 9 9 10 10 10 10 10 12 14 12 11 13 14 14 13 12 13 14 15 15 15 14 14 15 16 17 19 19
15 18 16 13 18 19 15 14 13 12 12 12 13 13 14 14 14 14 14 14 13 13 12 12 12 12 12 11 10 11 12 12 12 12 14 14 14 15 15 15 16 16 14 14 13 12 11 10 10 11 11 10 9 9 9 9 8 8 9 10 10 10 11 14 14 13 13 12 14 15 14 13 12 14 15 15 16 17 15 15 16 17 18 19 19
15 16 14 13 18 18 15 14 12 12 12 12 11 11 12 12 13 12 12 12 12 11 11 12 12 13 12 12 11 11 12 12 12 12 13 13 13 13 13 13 15 14 13 13 12 11 11 10 10 10 11 10 10 10 9 9 8 8 9 9 11 12 14 17 14 12 14 14 16 15 13 13 13 15 15 15 17 17 16 16 17 18 19 19 19
15 15 14 15 19 18 15 14 11 11 11 11 9 9 10 11 11 10 9 9 9 10 10 11 12 12 12 12 11 11 13 12 12 12 12 13 13 12 12 13 13 13 12 12 12 12 11 10 11 11 11 11 11 10 10 10 9 10 10 12 14 15 17 18 14 13 15 14 16 15 13 13 14 16 15 16 16 17 17 17 17 18 19 19 19
15 14 14 15 18 17 14 13 11 10 10 9 8 9 9 9 9 9 8 7 8 9 9 10 11 12 12 11 10 11 12 12 11 12 12 13 13 12 12 12 13 12 12 13 13 12 11 12 12 11 11 12 12 12 12 12 13 13 14 15 16 17 18 17 16 15 15 15 14 13 13 12 14 16 15 15 16 16 17 16 17 18 19 18 18
14 14 13 13 16 16 14 12 10 10 9 9 9 10 9 9 8 8 8 7 7 8 9 9 10 11 11 11 10 10 10 11 10 11 12 13 13 13 12 12 12 12 13 13 14 13 13 14 13 11 12 12 13 13 14 15 16 16 16 17 17 19 19 15 15 16 15 15 14 13 13 14 16 16 15 15 16 16 16 17 17 17 17 17 17
12 14 13 12 15 15 14 12 10 10 9 9 10 10 9 9 8 8 8 7 8 8 8 8 8 9 9 10 11 10 9 10 10 11 12 12 13 13 12 11 12 12 13 13 14 14 14 14 12 12 12 13 14 15 15 16 17 17 18 18 17 20 21 15 14 15 14 14 13 13 14 15 17 16 16 16 15 15 15 16 16 15 15 15 14
12 13 14 13 14 15 14 14 12 11 10 10 10 10 9 9 8 8 7 7 7 8 8 7 7 7 8 9 10 10 9 9 10 11 12 12 13 13 12 11 11 12 13 13 14 15 14 13 12 12 13 13 14 15 17 17 18 18 18 19 17 18 20 17 15 14 15 14 12 12 14 16 17 16 16 15 15 14 14 14 13 13 13 12 12
12 13 14 14 15 15 14 15 14 12 11 11 11 10 9 8 7 7 7 7 8 8 8 7 7 8 8 8 9 9 9 8 9 11 12 12 13 13 13 11 11 12 13 12 13 14 14 12 12 13 14 14 16 16 17 18 18 19 19 19 18 18 20 18 15 15 16 15 12 13 15 16 16 16 15 14 14 13 13 12 11 11 11 10 10
12 13 14 14 15 15 15 15 15 13 13 12 11 11 10 9 7 7 7 7 7 8 8 8 7 8 8 8 8 7 6 7 7 9 10 12 13 14 13 12 11 11 12 13 12 12 13 12 12 13 14 15 17 18 18 18 18 18 19 20 19 19 19 15 14 15 16 15 13 14 15 15 15 15 14 13 13 12 12 11 10 9 9 8 7
12 13 13 14 14 15 16 16 16 15 14 13 12 12 10 9 8 7 7 7 7 7 7 7 7 8 9 9 8 5 3 4 5 7 9 10 13 14 14 13 12 11 11 12 11 10 11 11 12 13 13 15 17 18 18 18 17 18 18 19 19 20 18 14 13 14 14 13 12 13 13 14 14 13 13 12 12 11 10 10 9 8 8 7 6
13 13 13 14 15 16 16 15 15 15 15 14 13 13 11 9 9 7 7 6 6 6 6 7 7 8 9 8 8 7 4 3 3 6 9 9 11 13 15 15 14 12 11 11 12 10 9 10 12 12 12 13 15 17 17 17 17 18 17 18 19 18 17 16 15 14 13 12 12 11 11 12 12 12 12 11 11 10 9 8 8 7 6 6 5
13 14 13 15 15 17 17 16 16 15 15 15 14 14 12 10 10 8 7 7 6 7 7 7 7 7 8 8 9 9 7 4 4 5 7 9 10 12 15 16 15 14 12 11 11 10 9 9 10 11 10 11 13 15 15 16 16 17 17 18 19 17 17 17 15 13 11 10 11 10 10 10 9 9 10 10 10 9 8 7 7 6 5 5 4
12 13 14 15 15 15 16 16 16 15 15 14 13 13 12 11 10 9 8 8 8 8 8 8 7 7 7 9 9 10 9 8 7 7 6 8 10 11 14 16 17 15 14 12 11 10 9 9 9 10 9 9 10 12 13 14 15 15 16 18 17 15 16 16 14 12 9 9 10 9 9 8 7 7 7 8 8 8 8 7 6 5 5 5 4
12 12 13 15 15 14 15 15 15 15 13 12 12 12 12 11 10 9 9 9 9 8 9 9 9 9 9 9 9 10 10 9 10 8 6 7 9 11 12 14 17 17 15 13 11 10 10 9 9 9 9 8 7 8 10 11 12 13 15 16 13 13 14 12 11 10 8 8 8 8 8 7 6 6 6 6 6 7 7 6 6 6 5 5 4
11 11 10 12 14 15 15 15 14 14 12 11 11 12 12 11 10 10 10 9 9 10 10 11 11 11 11 10 10 10 10 10 10 8 6 7 7 10 11 13 16 18 17 12 10 11 10 10 10 9 8 8 8 8 8 9 11 12 13 12 11 10 10 9 8 7 6 7 6 7 6 5 5 4 4 5 5 6 6 6 6 6 5 5 5
10 10 9 10 12 13 14 14 14 13 12 12 11 12 12 11 11 11 10 10 10 11 11 11 12 11 11 11 11 11 11 11 11 9 8 8 8 8 9 12 15 19 17 11 10 12 11 11 11 9 8 9 9 9 9 9 10 10 10 10 9 8 7 6 6 5 5 6 6 5 5 4 3 2 2 3 4 5 6 6 6 5 5 5 5
9 9 9 10 11 12 13 12 13 13 12 12 12 12 12 12 12 12 11 11 11 11 10 11 12 11 11 12 11 11 11 11 11 11 10 9 10 9 8 11 14 18 17 12 12 12 11 11 11 10 9 9 9 8 8 9 9 9 9 9 8 6 6 6 5 5 4 5 6 5 4 3 2 2 2 2 3 4 5 5 6 5 5 5 5
9 10 10 10 10 11 12 11 12 12 12 13 12 12 12 12 13 12 12 12 11 10 10 11 11 11 11 11 11 11 10 11 11 12 12 10 10 10 10 10 12 16 16 12 11 12 11 11 10 11 11 9 9 8 7 8 9 9 8 7 6 5 6 6 5 5 3 3 5 6 4 3 2 1 1 2 3 3 3 4 5 5 5 5 6
9 10 11 11 11 10 12 12 12 11 12 12 12 12 12 13 13 11 12 12 10 10 9 10 11 11 12 12 12 11 11 10 10 12 12 11 10 10 11 11 11 14 15 12 12 13 13 12 11 11 11 10 9 8 7 7 7 7 7 6 5 5 6 5 5 5 3 2 2 4 4 3 3 1 1 2 2 2 2 3 3 4 4 5 5
8 10 10 11 12 11 11 12 12 11 11 11 11 11 12 13 12 11 11 11 10 9 9 9 10 10 12 13 12 13 12 11 11 12 12 11 11 10 11 12 12 13 14 14 14 14 13 12 12 12 11 10 9 8 7 6 6 6 6 5 4 4 4 4 5 4 3 3 3 3 3 3 2 1 0 1 2 2 3 3 3 3 4 4 5
7 7 7 8 9 10 10 10 10 10 11 11 11 11 11 11 11 10 10 9 9 9 10 9 10 10 11 13 14 15 15 14 13 13 12 11 11 11 11 12 13 12 13 15 15 14 14 14 13 13 12 11 10 9 7 6 5 5 5 4 4 4 3 4 4 4 4 3 2 2 2 2 1 1 1 1 1 2 2 3 4 4 4 5 6
4 5 5 5 7 7 8 8 8 9 9 9 9 10 10 10 10 9 9 9 9 9 10 10 10 10 12 14 15 16 16 16 15 14 13 11 12 12 12 12 13 13 13 16 16 15 17 16 15 14 12 12 10 9 8 7 6 5 4 4 3 3 4 4 4 4 5 4 2 2 1 1 1 1 1 1 1 2 2 3 4 5 6 7 8
2 3 4 3 4 5 6 5 6 7 7 6 6 7 8 9 10 9 9 9 10 10 11 11 11 10 12 14 16 17 17 17 16 15 13 12 12 12 12 12 13 13 13 14 15 16 19 18 16 15 12 11 10 9 8 7 6 5 5 3 3 4 4 4 3 3 4 4 3 2 1 0 1 1 1 1 2 2 2 4 5 7 8 9 10
1 1 2 2 2 2 3 3 4 6 8 8 7 6 7 7 8 9 10 10 10 10 12 13 11 11 12 14 16 18 18 18 17 16 14 13 13 12 13 13 12 13 13 13 13 16 20 20 17 15 14 12 11 10 9 8 7 6 5 4 4 5 4 4 4 4 3 3 3 3 2 1 1 1 2 2 1 3 4 6 8 9 10 10 10
2 1 2 3 1 0 1 2 5 9 10 11 11 10 9 9 9 10 11 11 11 11 12 12 12 11 12 13 16 18 19 19 19 17 16 15 14 13 13 14 13 13 13 14 13 15 18 19 18 16 15 13 11 10 10 9 7 6 6 5 6 5 3 4 4 4 4 3 2 2 3 3 3 2 2 2 1 3 6 9 10 10 10 10 9
3 1 2 3 3 3 2 3 7 9 11 13 13 13 12 12 12 12 13 12 11 12 12 12 12 12 12 14 16 18 20 20 20 18 17 17 15 15 14 15 15 14 13 14 15 15 15 17 18 17 15 13 12 11 10 10 8 7 7 7 6 5 4 4 3 3 4 3 3 2 2 2 3 4 5 2 2 4 7 9 9 9 8 8 8
2 3 4 3 3 4 3 5 7 8 9 11 13 14 14 14 14 15 14 12 11 12 12 13 14 13 13 14 16 18 19 21 20 18 18 19 17 16 16 16 16 15 15 15 15 15 14 15 17 17 16 14 13 13 12 10 9 8 8 8 7 5 5 6 5 5 4 3 3 3 3 2 2 4 6 5 4 5 6 7 8 8 7 7 7
4 4 4 4 2 1 3 4 5 6 9 11 13 15 16 17 16 15 14 13 13 13 14 15 15 15 14 15 16 18 20 21 21 20 21 20 19 18 18 17 17 16 16 16 16 15 15 17 19 19 18 16 14 13 12 11 9 9 9 9 8 6 6 7 7 6 5 5 6 5 4 3 2 4 4 6 6 6 6 6 6 6 6 6 7
4 4 4 3 1 2 3 1 2 6 9 12 14 15 17 19 20 18 17 16 16 16 17 17 17 17 16 16 17 18 19 21 22 23 23 22 20 19 19 18 17 16 17 18 19 17 17 19 21 20 19 17 15 12 11 10 10 10 10 10 9 7 7 8 8 8 6 7 8 7 6 4 3 5 6 7 7 6 6 5 5 5 5 6 6
5 5 4 2 1 3 3 1 3 7 7 10 14 15 16 19 20 20 19 19 19 18 18 18 18 18 18 19 18 18 19 21 23 24 23 22 22 21 20 19 17 16 16 18 20 19 19 21 21 21 20 18 16 13 11 10 11 11 11 10 9 8 8 8 9 9 9 9 9 7 7 6 5 6 8 8 7 6 5 5 5 5 5 5 5
6 6 6 5 4 5 4 4 5 4 5 8 12 14 15 17 18 18 19 20 19 19 18 18 19 19 19 20 19 18 19 21 23 23 23 23 24 23 22 21 19 18 17 17 18 19 20 21 21 21 21 18 16 15 13 12 12 11 10 9 8 8 8 9 9 9 9 9 9 8 8 8 6 7 9 9 7 7 6 6 5 5 6 5 5
5 8 7 5 3 4 4 4 6 5 6 7 10 12 12 12 13 14 16 17 18 18 18 18 19 20 20 20 19 19 20 22 23 23 25 25 25 24 24 23 22 21 20 18 18 18 19 19 20 20 20 19 17 16 16 15 14 12 11 9 8 8 9 9 9 10 10 10 10 10 9 10 9 8 9 8 8 7 7 7 6 6 6 5 5
5 5 3 1 0 2 3 5 6 6 6 7 8 9 9 9 9 10 11 13 15 16 17 17 19 19 19 18 18 20 22 24 24 25 27 26 25 26 26 26 25 23 21 20 20 20 19 19 19 19 18 18 17 16 17 17 16 13 12 11 9 9 9 10 11 10 9 10 11 11 12 11 10 10 10 9 8 8 7 8 8 7 6 6 5
4 3 2 1 1 3 5 5 5 6 6 6 6 6 6 7 8 8 9 10 12 14 15 17 18 19 19 19 19 20 21 23 25 27 27 26 27 27 27 28 28 26 23 22 22 21 20 20 20 19 18 18 17 17 18 19 18 16 14 12 10 10 10 10 11 10 9 10 11 11 13 12 12 11 10 9 9 8 8 9 8 7 7 6 6
4 3 2 2 2 1 3 3 5 6 5 5 4 4 5 6 7 8 8 8 10 12 13 14 16 17 17 18 18 20 20 22 25 27 28 28 28 28 29 30 30 29 25 23 23 22 22 21 21 20 19 19 17 18 19 19 20 19 15 10 9 10 9 8 9 9 9 10 9 11 12 12 12 12 11 10 9 8 9 9 8 7 6 6 5
7 6 5 5 5 3 3 2 4 5 4 3 3 3 5 6 7 9 8 9 11 11 11 11 13 14 15 16 17 19 20 21 23 25 28 29 28 28 30 30 29 29 27 25 25 24 23 23 22 21 21 20 18 18 20 20 21 20 16 13 11 9 6 7 9 8 9 10 10 12 12 12 13 13 11 11 10 8 8 8 8 7 6 6 6
7 6 6 6 6 5 5 4 4 4 4 3 3 3 4 6 7 8 9 9 10 11 11 12 12 14 16 16 17 19 20 20 22 24 27 29 28 28 29 28 28 29 28 26 26 25 23 23 23 21 21 21 20 19 19 20 20 18 17 17 15 11 7 7 8 7 8 10 12 13 13 12 14 14 13 12 11 9 9 8 8 7 6 6 6
6 7 5 6 6 6 5 5 5 5 5 6 5 4 5 6 6 7 7 7 9 11 13 13 14 15 16 15 15 17 18 19 22 24 25 27 27 27 27 27 27 27 28 28 27 26 24 23 22 22 21 20 21 22 20 20 20 18 18 19 18 14 10 9 9 8 8 9 11 13 12 12 14 15 14 13 12 11 11 9 8 8 7 7 7
7 8 8 7 6 6 6 6 7 6 6 8 8 6 5 4 5 6 7 7 7 9 10 12 13 13 14 14 13 16 17 18 21 21 21 23 25 25 24 25 25 25 28 29 29 27 25 23 22 22 21 21 22 23 22 21 20 18 18 18 16 14 11 10 9 8 8 9 10 13 14 14 15 15 16 15 13 12 11 10 9 8 8 9 9
9 10 10 9 8 6 5 6 6 6 6 7 8 8 6 5 5 6 7 7 8 8 9 10 11 12 13 13 13 14 14 15 17 17 17 19 23 26 23 20 20 22 26 29 29 28 25 23 22 21 21 22 23 24 24 22 21 19 18 16 16 14 13 12 11 9 9 9 9 11 15 15 15 15 16 17 14 12 11 11 10 9 9 11 11
10 11 11 11 10 9 7 6 7 7 7 7 7 7 7 7 6 6 7 8 10 10 11 10 10 11 13 12 12 11 10 10 11 11 13 14 18 23 21 16 16 20 24 27 27 27 25 24 23 22 22 23 24 24 24 23 21 18 16 16 15 15 14 13 12 11 10 10 9 10 13 14 13 13 15 16 15 12 11 11 11 9 9 11 12
Wind_Direction
168 169 176 176 175 176 174 175 178 181 182 182 184 182 178 173 171 172 176 175 176 176 162 146 135 123 111 109 102 94 88 90 97 98 105 114 123 126 126 124 119 112 109 109 107 109 112 115 118 118 118 119 115 113 115 115 114 112 110 110 110 107 105 103 102 102 102 102 101 100 98 95 90 86 85 84 83 84 87 84 76 74 71 61 57
166 172 177 176 175 177 176 175 178 181 184 184 185 183 179 175 173 176 179 179 182 183 169 154 144 130 117 115 104 95 90 96 104 104 110 118 125 127 126 122 115 109 109 109 108 110 111 113 114 113 113 114 114 113 115 115 113 111 110 109 107 105 102 102 101 100 100 100 97 96 95 93 89 86 82 82 83 82 85 87 84 79 68 56 55
165 170 176 177 173 176 178 176 179 181 185 186 186 184 182 178 177 180 182 183 187 188 173 159 150 131 121 121 108 98 96 100 106 106 111 119 125 127 125 117 111 109 109 110 111 112 112 112 110 110 111 113 114 113 113 112 110 109 108 106 104 103 103 103 103 103 101 96 90 85 82 82 89 90 82 78 82 89 88 86 86 72 59 52 57
166 166 173 176 173 176 178 178 180 182 186 188 187 186 184 181 181 183 185 188 191 190 173 163 149 132 128 126 112 103 103 103 105 109 115 120 125 127 122 114 111 111 111 112 111 111 112 112 110 109 109 111 112 112 110 108 108 107 106 105 104 103 102 102 103 104 101 95 85 80 79 77 88 97 85 72 77 93 100 92 81 64 56 56 62
165 167 173 174 173 176 177 180 181 183 187 189 190 187 186 184 185 186 189 192 191 186 171 161 145 134 135 130 117 109 109 106 106 113 118 122 126 125 121 115 113 114 113 113 112 113 114 114 112 110 110 111 111 112 111 110 110 109 109 108 108 106 103 101 100 101 98 92 83 77 78 80 86 99 94 75 79 81 84 84 76 69 66 69 76
165 168 173 174 173 175 178 180 181 183 186 190 191 189 188 187 188 189 191 191 188 179 168 157 143 138 139 132 122 115 113 111 112 116 120 124 126 125 122 118 116 117 116 114 114 116 115 113 111 111 113 113 113 113 113 113 111 109 110 108 109 107 104 98 95 95 85 76 79 80 78 80 75 84 94 79 89 86 81 82 79 78 79 84 88
167 165 169 174 174 174 178 179 180 182 184 189 189 188 188 188 189 189 190 187 182 174 164 154 145 144 142 135 129 122 117 114 117 121 122 125 128 126 125 121 118 120 118 115 115 116 114 111 110 111 112 112 111 111 114 114 112 109 106 105 104 99 92 86 84 86 87 82 85 88 85 87 73 65 85 91 95 93 90 92 90 89 91 92 93
169 163 165 174 176 174 176 178 178 180 182 185 185 187 188 188 188 187 187 181 175 170 162 154 149 147 144 141 137 128 121 118 119 125 125 128 132 129 128 126 123 124 123 122 120 118 117 113 110 110 110 110 111 111 111 112 114 112 109 107 101 93 83 80 80 79 89 95 98 92 86 87 83 80 92 101 100 93 91 93 96 97 99 99 98
168 162 164 174 177 176 175 176 176 179 180 180 181 183 186 187 186 186 183 175 172 169 161 155 151 148 147 149 143 133 126 123 121 126 128 133 139 137 133 132 132 133 132 130 124 120 117 114 113 111 112 113 113 113 110 109 111 110 110 106 102 97 88 85 86 82 83 89 96 94 89 86 84 88 92 97 98 95 93 92 96 99 101 101 101
165 163 165 172 175 176 174 174 176 177 175 176 179 181 184 186 185 184 180 174 172 168 161 157 153 153 154 155 148 136 130 129 124 123 130 137 143 143 141 139 139 140 139 133 123 118 115 113 112 110 112 114 114 112 108 107 105 103 101 100 99 94 91 90 84 84 85 89 97 99 103 100 91 91 89 93 98 100 101 100 101 101 102 102 102
165 166 165 172 173 175 174 174 175 173 171 173 177 181 181 183 184 184 180 176 172 166 163 160 157 158 159 158 152 138 131 133 129 121 125 134 141 145 147 144 143 144 139 131 123 118 114 111 107 107 110 112 112 110 109 107 103 102 99 99 99 96 101 97 87 85 84 84 89 89 99 102 95 96 93 94 100 103 105 104 103 103 104 103 101
167 165 167 177 173 173 174 174 172 168 168 171 173 175 176 181 185 185 183 177 171 166 166 164 162 163 162 160 154 140 132 134 134 126 124 130 136 143 148 145 144 143 134 128 125 119 115 110 108 110 111 111 112 111 110 107 105 106 105 107 104 104 103 97 94 97 93 91 90 88 92 93 97 101 99 100 102 103 104 103 104 104 104 104 102
166 164 175 181 174 173 175 172 168 166 166 168 164 163 167 178 184 185 183 176 170 166 168 169 168 166 163 162 158 143 134 137 140 133 129 132 134 139 144 144 144 139 129 128 125 121 118 114 113 112 109 110 110 109 109 106 107 109 110 110 106 107 104 100 102 100 98 98 97 99 98 93 100 104 103 103 102 102 103 104 106 105 105 105 105
164 167 180 178 173 173 175 169 163 164 165 163 153 148 153 166 175 178 176 174 169 164 170 173 171 168 165 165 160 148 137 139 142 136 134 135 137 140 145 145 144 137 130 129 125 123 123 122 119 112 109 109 109 108 106 102 102 104 107 107 107 106 99 96 98 95 96 95 94 99 97 99 105 105 105 103 101 101 101 104 106 105 105 105 104
165 167 178 176 173 172 172 168 161 161 163 159 149 144 144 151 160 164 166 167 162 159 168 174 172 170 169 165 157 152 143 140 142 141 140 139 141 144 148 149 145 138 132 129 126 126 128 127 122 115 113 111 108 107 103 100 99 100 101 101 105 104 97 95 96 96 96 95 100 102 98 102 104 103 103 102 101 99 98 102 103 103 103 104 104
165 166 173 176 176 174 172 167 162 163 164 158 151 146 146 152 156 157 157 154 148 145 150 158 161 166 169 161 154 157 153 146 146 148 147 144 144 147 151 155 152 142 134 130 127 128 132 130 123 119 117 112 106 105 103 101 99 98 98 98 99 99 101 106 102 98 100 99 101 99 94 99 101 101 101 98 98 99 99 101 103 104 104 105 107
161 167 175 177 177 179 178 172 166 165 162 157 155 151 154 162 161 156 150 141 132 126 129 133 135 146 158 156 158 163 163 156 150 153 154 150 150 153 156 160 160 149 140 135 130 129 133 129 122 120 116 109 104 103 104 103 103 100 99 98 94 93 97 103 105 106 107 102 96 93 93 97 100 99 98 97 97 99 100 102 104 106 108 109 109
164 174 178 178 180 180 181 177 168 167 161 154 157 159 165 170 164 155 144 134 125 121 125 127 125 133 146 154 161 165 169 167 158 156 158 158 157 159 163 167 168 159 148 142 136 133 134 129 121 120 115 108 103 102 102 103 103 103 103 99 95 94 91 93 101 104 102 102 103 103 99 96 97 97 98 99 99 100 99 102 105 106 109 110 111
173 177 176 177 179 174 178 180 173 171 163 156 163 166 174 175 165 155 145 137 128 124 126 129 130 133 138 142 147 156 171 175 172 166 162 164 165 166 170 173 175 172 160 149 142 137 135 131 126 123 116 109 105 101 100 100 100 101 100 98 98 94 89 89 96 100 101 105 109 106 102 98 98 99 99 99 99 100 101 103 107 108 108 108 110
179 174 172 175 175 173 177 181 178 175 165 163 170 171 177 176 164 155 148 140 130 125 128 135 132 132 134 132 135 140 161 179 188 185 173 171 173 174 176 178 180 184 174 157 149 146 141 135 132 129 118 111 107 102 100 98 98 97 96 97 96 92 91 93 91 94 99 103 106 105 104 104 104 105 104 103 104 105 106 107 109 110 110 111 111
185 177 175 177 177 179 181 183 181 178 172 169 174 177 178 174 164 159 154 146 140 134 135 146 141 136 134 134 144 152 172 205 216 201 187 183 182 180 180 182 185 188 187 171 159 155 150 141 135 134 123 113 108 105 102 99 98 97 98 98 94 93 96 94 87 86 86 85 89 95 99 104 108 111 113 112 113 114 115 115 114 115 118 120 118
187 185 181 182 183 186 185 186 185 181 178 174 177 182 179 173 172 172 169 165 163 155 155 166 162 150 148 154 162 166 181 201 221 217 197 190 187 186 186 186 188 190 193 187 172 164 158 149 138 138 130 116 108 104 103 102 101 101 101 98 93 97 100 97 94 92 91 88 86 90 93 97 105 112 118 121 123 125 124 123 121 124 128 128 124
187 189 188 187 188 192 188 186 186 184 181 176 178 182 182 179 180 183 185 186 185 181 179 185 188 180 176 179 175 175 181 186 207 225 214 198 191 190 190 190 191 191 196 196 184 170 163 155 144 141 139 125 110 101 101 103 104 105 102 96 96 100 98 96 98 99 105 104 97 98 97 97 104 110 116 123 129 132 133 135 135 138 139 135 131
187 189 195 192 188 192 190 188 190 191 184 177 178 180 185 187 188 193 197 199 196 195 192 192 199 196 193 194 186 183 184 190 207 224 224 211 199 191 193 196 194 193 197 199 194 178 164 159 152 150 147 136 122 109 107 106 108 106 99 98 101 100 95 94 95 97 102 101 100 102 101 103 108 115 124 134 143 145 146 150 149 149 148 146 143
189 189 196 200 197 194 192 192 193 195 187 182 185 187 193 193 194 201 203 207 204 202 200 200 208 207 206 206 200 191 188 196 207 216 218 213 207 194 191 195 195 197 195 192 196 188 172 166 160 158 154 144 143 139 126 113 108 105 102 101 98 92 90 88 85 86 91 94 97 99 102 106 112 127 140 145 152 157 161 161 163 163 159 155 148
187 189 190 199 205 200 194 195 197 197 192 191 194 198 202 195 198 207 208 212 212 209 208 211 217 219 220 218 212 201 196 206 207 206 206 209 213 199 190 194 196 198 191 182 195 194 185 179 168 163 162 157 155 147 134 120 111 108 106 99 90 89 89 87 87 88 93 91 87 90 98 108 121 144 156 155 164 175 173 168 174 175 168 159 154
184 186 186 196 202 201 199 201 204 204 200 197 199 205 203 196 205 214 214 216 216 214 216 222 225 225 227 224 217 207 206 216 213 206 202 202 211 204 199 202 196 194 187 183 193 190 188 189 180 174 169 167 163 152 141 131 124 119 113 102 95 100 100 98 99 94 90 89 87 85 89 104 123 143 153 172 197 205 188 179 183 178 173 166 157
185 188 184 193 197 198 200 200 202 205 206 206 207 210 208 207 214 216 217 220 217 216 218 224 228 226 227 225 217 210 210 217 216 211 205 200 209 210 209 206 196 192 188 190 194 187 191 192 187 182 172 170 169 159 152 144 135 127 120 113 111 114 114 116 114 104 95 92 89 86 90 101 107 124 162 186 210 214 198 196 192 178 172 162 151
184 192 191 194 191 190 198 200 200 204 207 208 209 212 214 217 219 218 220 222 219 218 218 223 229 228 226 223 219 216 213 212 211 211 208 203 205 211 212 203 191 193 191 190 193 192 198 195 186 186 177 173 174 169 166 157 145 135 131 129 127 124 121 120 116 112 111 126 113 94 92 91 92 108 190 201 205 204 209 210 189 166 156 148 143
182 192 196 194 192 194 202 206 207 206 206 205 206 210 215 218 218 219 222 224 222 222 224 228 230 230 228 225 220 219 215 208 205 205 206 205 204 207 213 209 199 201 195 190 194 196 200 198 190 189 182 175 177 181 178 164 156 148 142 145 141 130 126 128 126 131 139 158 157 114 100 94 86 74 311 239 212 204 209 197 169 157 152 143 135
186 190 191 188 195 204 210 210 207 208 207 203 206 211 214 217 219 220 224 227 226 227 234 236 234 231 230 228 223 222 219 210 204 201 202 206 207 205 209 214 211 211 200 192 197 196 198 202 197 194 188 181 183 188 184 169 169 161 154 166 159 139 143 150 144 147 157 177 180 131 114 101 76 24 339 295 198 197 198 174 167 162 152 138 129
189 192 197 196 198 210 218 214 207 213 214 207 211 214 214 220 223 223 227 230 230 232 239 241 239 235 232 232 230 227 225 219 211 204 203 207 211 209 207 213 215 216 210 202 204 199 198 204 204 202 199 193 190 193 193 183 178 173 181 189 166 162 170 162 159 160 158 170 191 161 154 114 82 24 326 308 197 195 186 172 168 155 141 129 122
198 204 207 216 213 214 222 222 216 218 218 213 219 219 216 225 229 229 232 235 236 235 239 243 241 238 235 236 237 234 230 226 220 211 209 212 214 214 211 214 216 217 217 213 215 208 203 206 207 205 205 204 202 204 208 205 197 197 208 199 176 189 182 166 191 189 162 162 174 175 200 249 34 3 311 278 227 213 177 162 149 139 132 123 118
234 267 221 231 232 206 206 224 236 229 224 222 229 234 226 229 233 234 236 237 239 239 242 247 245 238 236 239 243 242 236 230 227 218 214 218 219 219 217 217 217 217 217 218 219 215 211 211 211 209 208 207 206 208 212 213 214 218 223 207 203 214 190 181 206 201 180 179 175 166 175 169 48 351 316 335 231 196 165 148 142 136 131 126 123
223 280 252 236 252 312 221 245 249 239 231 230 235 240 235 234 239 240 243 241 239 242 246 252 253 244 236 239 245 247 240 232 228 224 218 221 223 222 220 218 217 216 216 217 217 217 216 215 213 212 211 208 206 207 208 214 220 226 236 230 220 215 199 211 219 199 197 194 170 169 176 164 147 185 240 339 55 162 157 145 140 138 137 134 132
195 249 293 270 267 275 304 293 261 247 237 232 233 237 236 236 239 244 251 252 246 245 248 253 257 253 243 240 244 247 246 237 230 228 223 222 225 225 222 219 217 215 215 216 216 215 216 216 215 213 211 207 207 207 209 218 223 229 242 242 228 207 201 225 230 216 216 188 163 195 204 183 169 164 167 145 95 138 154 149 143 144 147 144 141
253 301 330 333 282 250 295 299 266 258 250 241 237 238 240 238 239 246 254 258 253 249 250 254 258 258 250 243 243 246 249 243 234 232 229 224 224 226 225 222 220 217 216 216 216 214 212 213 214 214 213 210 210 211 213 220 225 233 235 232 228 211 203 212 213 222 226 188 178 202 207 216 193 137 144 153 145 152 163 157 152 153 153 154 154
315 333 355 360 326 212 330 296 260 277 270 253 245 240 240 240 239 244 251 254 255 252 251 255 257 257 252 245 243 242 247 247 237 232 234 230 225 226 226 225 224 221 219 217 215 213 212 213 213 213 212 212 212 212 216 221 225 232 230 222 221 216 210 211 210 215 213 195 200 202 198 214 191 143 159 171 161 167 178 171 168 169 168 175 181
352 3 11 1 319 35 10 301 253 300 276 250 246 241 238 239 239 239 242 246 251 253 252 253 255 256 255 250 245 240 243 247 240 233 236 236 230 227 228 227 226 224 221 217 215 211 211 215 215 212 212 212 214 212 214 217 220 225 224 220 220 219 215 217 217 209 202 207 211 204 198 205 194 179 184 183 175 178 185 189 193 194 202 206 201
10 20 28 30 333 349 3 322 316 308 274 241 239 240 235 236 238 236 237 242 247 252 254 253 255 256 257 254 250 244 243 246 244 237 236 239 236 232 229 228 226 224 220 216 215 212 213 219 218 213 213 213 214 214 213 214 219 223 222 221 223 226 221 220 221 213 209 215 211 205 205 198 191 198 193 189 190 188 194 210 208 203 219 226 214
31 44 43 38 5 341 330 313 316 293 256 246 245 243 236 236 240 239 238 242 246 252 255 256 256 255 256 256 252 247 247 249 249 244 238 238 237 234 231 229 225 222 218 211 210 209 213 221 220 216 216 215 215 217 217 217 216 213 212 215 221 227 226 222 224 223 220 218 208 202 210 202 190 202 200 193 198 196 200 213 217 218 224 227 221
52 51 38 24 358 330 313 293 287 261 248 256 255 253 247 247 253 251 246 246 248 251 253 256 258 259 259 258 254 251 252 253 254 248 239 235 235 235 235 231 224 219 217 210 206 206 208 217 217 215 216 215 218 219 219 218 212 206 202 205 214 220 226 225 226 228 226 223 215 206 210 206 194 200 202 196 200 200 202 208 215 224 220 218 225
65 59 44 40 149 258 261 260 272 278 277 263 254 260 260 261 266 262 254 251 252 252 252 255 259 263 265 263 260 261 259 256 255 252 245 238 234 233 234 234 226 220 218 214 211 208 207 212 213 213 212 214 218 217 216 215 208 204 204 207 213 215 224 227 224 226 224 226 225 214 211 209 198 198 200 198 198 197 205 208 209 215 211 207 211
90 100 154 132 116 222 236 251 268 274 279 270 262 267 269 270 269 263 257 251 251 253 254 256 259 263 266 268 268 269 268 261 257 253 249 242 237 234 233 233 229 223 218 215 213 210 209 210 210 210 209 210 214 215 217 217 208 201 202 206 207 210 221 219 212 220 223 225 231 223 216 213 205 201 199 199 199 198 209 210 206 208 207 207 203
88 84 84 45 32 286 248 271 281 277 280 283 284 288 292 296 289 280 273 262 259 259 259 262 266 268 273 279 279 276 276 270 261 254 250 245 241 238 235 234 231 226 220 216 215 214 212 213 212 212 212 211 213 218 222 220 214 208 205 202 197 208 222 205 192 208 219 221 226 222 219 216 211 207 203 202 200 202 213 213 211 208 199 204 202
45 37 24 18 14 5 360 330 299 293 295 293 275 272 289 299 294 288 287 282 278 276 276 277 278 278 281 288 290 285 279 272 265 258 254 250 246 243 241 238 234 230 225 221 220 218 217 219 219 217 218 215 214 222 224 219 217 215 211 208 202 201 207 195 190 197 207 216 221 219 218 215 213 211 207 205 201 202 211 209 208 208 197 199 196
31 19 13 14 9 2 359 353 335 318 313 313 293 277 288 301 304 300 295 290 287 287 288 287 284 283 284 290 293 288 279 271 267 263 257 253 249 244 241 239 236 233 232 228 224 222 220 221 221 219 220 218 216 222 223 220 218 215 214 217 215 210 201 198 203 196 197 211 220 223 221 212 211 211 208 207 203 201 206 203 201 205 198 195 191
2 358 358 4 8 6 359 350 344 334 325 318 310 300 293 298 309 308 303 301 296 290 286 285 284 285 291 296 291 284 279 272 267 264 258 252 248 242 235 237 240 237 235 232 227 223 221 220 220 218 219 219 220 222 223 225 222 214 217 221 220 222 219 209 211 209 205 210 213 217 217 211 209 209 206 207 205 203 207 206 206 209 198 187 184
357 3 359 351 350 353 359 354 346 344 335 322 319 320 307 299 304 297 293 301 300 293 288 288 290 291 295 297 289 284 283 275 267 262 255 247 242 239 231 228 233 236 236 233 228 223 220 220 221 219 220 220 221 223 224 228 225 213 212 216 215 219 221 218 217 213 214 217 209 204 205 205 207 210 209 207 206 204 206 208 207 211 204 185 176
18 16 9 2 352 344 350 354 348 349 346 335 331 330 316 298 289 283 287 296 295 292 289 289 293 293 292 290 285 286 285 279 270 255 248 244 236 237 235 220 216 229 237 234 228 223 219 221 224 223 223 223 223 224 221 220 221 214 207 208 208 210 211 215 218 213 214 223 218 204 202 203 205 208 209 207 205 201 204 208 203 207 209 188 176
23 15 9 8 7 3 358 350 342 340 340 335 327 321 311 297 288 287 291 293 292 292 289 286 287 287 288 286 280 280 280 281 275 251 243 245 235 238 244 232 216 225 235 235 229 222 217 220 226 226 227 228 226 225 219 216 219 215 205 204 207 208 208 211 214 214 214 219 220 209 203 205 206 207 208 206 204 201 202 206 203 204 210 192 180
Height
1524 1525 1525 1526 1528 1528 1531 1532 1533 1535 1536 1537 1538 1539 1539 1540 1541 1542 1542 1543 1544 1544 1545 1546 1546 1547 1547 1547 1547 1546 1546 1546 1546 1546 1545 1545 1546 1546 1547 1547 1548 1548 1548 1549 1549 1549 1550 1550 1550 1550 1551 1551 1551 1551 1551 1551 1551 1552 1552 1552 1551 1552 1552 1552 1552 1553 1553 1553 1553 1553 1553 1553 1554 1553 1553 1553 1552 1551 1551 1551 1551 1550 1549 1549 1549
1523 1524 1524 1526 1528 1529 1531 1532 1534 1535 1536 1537 1538 1539 1540 1541 1542 1543 1543 1544 1545 1545 1546 1547 1548 1548 1548 1548 1548 1548 1548 1547 1547 1547 1547 1547 1547 1548 1548 1549 1549 1549 1550 1550 1550 1550 1551 1551 1551 1552 1552 1552 1552 1552 1553 1553 1553 1553 1553 1553 1553 1553 1553 1554 1554 1554 1554 1554 1554 1554 1554 1555 1554 1554 1554 1553 1553 1552 1552 1552 1551 1551 1550 1550 1550
1523 1524 1524 1526 1528 1530 1531 1532 1534 1535 1537 1538 1539 1540 1541 1542 1543 1544 1544 1545 1546 1546 1547 1548 1549 1549 1549 1549 1549 1549 1549 1549 1549 1549 1548 1548 1549 1550 1550 1550 1551 1551 1551 1551 1552 1552 1552 1552 1552 1553 1553 1553 1554 1554 1554 1554 1554 1554 1554 1554 1554 1554 1554 1555 1555 1555 1556 1555 1556 1556 1556 1556 1555 1555 1555 1554 1554 1553 1553 1553 1552 1552 1551 1551 1551
1523 1524 1524 1526 1528 1530 1531 1532 1534 1535 1537 1538 1540 1540 1542 1543 1543 1544 1545 1546 1547 1548 1549 1549 1550 1550 1550 1550 1550 1550 1550 1550 1550 1550 1550 1550 1550 1551 1552 1552 1552 1553 1553 1553 1553 1554 1554 1554 1554 1554 1555 1555 1555 1555 1555 1555 1555 1555 1555 1555 1555 1555 1555 1556 1557 1557 1557 1557 1557 1557 1557 1557 1556 1556 1555 1555 1554 1554 1554 1553 1553 1553 1552 1552 1552
1524 1525 1525 1527 1529 1530 1532 1533 1534 1536 1537 1538 1540 1541 1542 1543 1544 1545 1546 1547 1548 1549 1550 1550 1551 1551 1552 1552 1552 1552 1552 1551 1551 1552 1552 1552 1552 1553 1553 1554 1554 1554 1554 1555 1555 1555 1556 1556 1556 1556 1556 1556 1557 1556 1556 1556 1556 1556 1556 1556 1556 1556 1557 1557 1558 1558 1558 1558 1558 1559 1559 1558 1557 1556 1555 1555 1555 1555 1554 1554 1554 1553 1553 1553 1553
1525 1525 1525 1527 1529 1530 1532 1533 1535 1536 1537 1539 1540 1542 1543 1544 1545 1546 1547 1548 1548 1549 1550 1551 1551 1552 1553 1553 1553 1553 1553 1553 1553 1553 1553 1553 1554 1554 1555 1555 1556 1556 1556 1557 1557 1557 1557 1557 1557 1558 1558 1558 1558 1558 1558 1558 1557 1558 1558 1558 1558 1558 1558 1558 1558 1559 1559 1559 1560 1561 1561 1560 1558 1556 1556 1556 1556 1556 1555 1555 1555 1554 1554 1554 1554
1525 1526 1526 1528 1529 1531 1532 1534 1536 1537 1538 1539 1541 1542 1543 1544 1546 1547 1548 1548 1549 1550 1551 1552 1552 1553 1553 1554 1554 1554 1555 1555 1555 1555 1555 1555 1555 1556 1556 1557 1557 1558 1558 1558 1559 1559 1559 1559 1559 1559 1559 1559 1559 1559 1559 1559 1559 1559 1559 1558 1558 1559 1559 1559 1559 1559 1560 1561 1562 1563 1562 1561 1559 1557 1556 1556 1556 1556 1556 1556 1556 1555 1555 1555 1555
1525 1527 1528 1529 1530 1531 1533 1535 1537 1538 1539 1540 1542 1543 1544 1545 1546 1547 1548 1549 1550 1551 1552 1552 1553 1554 1554 1555 1555 1556 1556 1556 1556 1556 1556 1557 1557 1557 1558 1558 1559 1559 1559 1560 1560 1560 1560 1561 1561 1561 1561 1561 1560 1560 1560 1560 1560 1560 1560 1560 1559 1559 1559 1560 1560 1560 1561 1562 1563 1564 1563 1562 1560 1558 1557 1557 1557 1557 1557 1557 1557 1557 1556 1556 1556
1526 1528 1529 1530 1530 1532 1534 1536 1537 1539 1540 1542 1543 1544 1545 1546 1547 1548 1549 1550 1551 1551 1552 1553 1554 1554 1555 1556 1556 1557 1557 1557 1557 1557 1558 1558 1559 1559 1559 1559 1560 1560 1560 1561 1561 1562 1562 1562 1562 1562 1562 1562 1562 1561 1561 1561 1561 1561 1561 1561 1561 1561 1561 1561 1561 1561 1562 1563 1563 1564 1564 1563 1562 1560 1559 1559 1559 1558 1558 1558 1558 1558 1558 1558 1557
1527 1528 1530 1531 1531 1533 1535 1537 1538 1540 1542 1543 1544 1545 1546 1547 1548 1549 1550 1551 1552 1552 1553 1554 1555 1555 1556 1557 1557 1557 1558 1558 1558 1558 1559 1559 1560 1560 1560 1560 1561 1561 1561 1562 1562 1563 1563 1564 1564 1564 1563 1563 1563 1562 1562 1562 1562 1562 1562 1562 1562 1562 1562 1562 1561 1562 1563 1563 1563 1563 1564 1564 1563 1562 1561 1560 1560 1560 1560 1560 1560 1559 1559 1559 1559
1528 1529 1531 1532 1532 1533 1536 1537 1539 1541 1543 1544 1545 1546 1547 1548 1549 1550 1551 1552 1553 1554 1554 1555 1556 1556 1557 1558 1558 1558 1558 1558 1559 1559 1560 1560 1561 1561 1561 1561 1561 1562 1562 1563 1564 1564 1565 1565 1565 1565 1565 1564 1564 1563 1563 1563 1563 1563 1563 1563 1563 1563 1563 1562 1563 1564 1564 1564 1563 1564 1564 1564 1564 1563 1562 1562 1561 1561 1561 1561 1561 1560 1560 1560 1560
1529 1530 1532 1532 1532 1534 1536 1538 1540 1542 1544 1545 1546 1547 1549 1550 1550 1551 1552 1553 1554 1554 1555 1556 1556 1557 1558 1558 1559 1559 1559 1559 1560 1560 1561 1561 1562 1562 1562 1562 1562 1563 1563 1564 1565 1565 1566 1566 1567 1567 1566 1566 1565 1565 1564 1564 1564 1564 1564 1564 1563 1564 1563 1563 1565 1566 1566 1566 1565 1566 1566 1565 1564 1563 1563 1563 1563 1562 1562 1562 1562 1562 1562 1562 1561
1530 1531 1533 1532 1533 1535 1537 1539 1541 1543 1544 1546 1547 1548 1549 1550 1551 1552 1553 1554 1555 1555 1556 1556 1557 1558 1559 1559 1559 1560 1560 1560 1560 1561 1562 1562 1563 1563 1563 1563 1563 1564 1565 1566 1566 1566 1567 1567 1568 1568 1568 1567 1567 1566 1566 1565 1565 1565 1565 1565 1565 1565 1564 1564 1566 1567 1567 1567 1567 1567 1567 1566 1565 1564 1564 1564 1564 1564 1564 1564 1564 1563 1563 1563 1563
1531 1533 1533 1533 1534 1536 1539 1541 1543 1544 1545 1547 1548 1549 1550 1551 1552 1553 1554 1554 1555 1556 1556 1557 1558 1558 1559 1560 1560 1560 1561 1561 1561 1562 1562 1563 1563 1564 1564 1564 1565 1566 1567 1567 1567 1567 1568 1568 1569 1569 1569 1568 1568 1568 1567 1567 1566 1566 1566 1566 1566 1565 1565 1566 1567 1568 1568 1568 1567 1568 1567 1567 1566 1566 1566 1566 1565 1565 1565 1565 1565 1565 1565 1565 1565
1532 1533 1534 1535 1536 1538 1540 1542 1544 1545 1546 1548 1549 1550 1550 1551 1552 1553 1554 1554 1555 1556 1557 1557 1558 1559 1559 1560 1561 1561 1561 1562 1562 1563 1563 1564 1564 1564 1564 1565 1566 1567 1568 1568 1568 1568 1569 1569 1570 1570 1570 1570 1569 1569 1568 1568 1568 1567 1567 1567 1567 1566 1566 1568 1569 1569 1569 1569 1569 1569 1568 1567 1567 1567 1567 1567 1567 1567 1567 1567 1567 1567 1566 1566 1566
1533 1534 1535 1537 1538 1539 1541 1543 1545 1546 1547 1549 1550 1550 1551 1552 1552 1553 1554 1555 1556 1557 1558 1558 1559 1559 1560 1561 1561 1561 1561 1562 1563 1563 1564 1564 1565 1565 1565 1565 1566 1568 1569 1570 1570 1570 1570 1570 1571 1571 1571 1571 1570 1570 1570 1569 1569 1569 1568 1568 1569 1567 1567 1570 1570 1570 1570 1570 1570 1569 1569 1568 1568 1569 1568 1569 1569 1569 1569 1568 1568 1568 1568 1568 1567
1534 1535 1536 1537 1539 1540 1542 1543 1545 1546 1548 1549 1550 1551 1552 1552 1553 1554 1555 1556 1557 1558 1559 1559 1559 1560 1561 1561 1562 1562 1562 1562 1563 1564 1564 1565 1565 1566 1566 1566 1567 1569 1570 1570 1571 1571 1571 1571 1572 1572 1572 1572 1571 1571 1571 1570 1570 1570 1570 1570 1570 1569 1568 1570 1571 1571 1571 1571 1571 1570 1570 1570 1570 1570 1570 1570 1570 1570 1570 1570 1570 1570 1569 1569 1569
1535 1536 1537 1538 1540 1541 1542 1544 1545 1546 1548 1549 1551 1551 1552 1553 1554 1555 1556 1557 1558 1559 1559 1560 1560 1561 1561 1562 1562 1563 1563 1563 1563 1564 1565 1566 1566 1566 1567 1567 1568 1569 1570 1571 1571 1572 1572 1572 1573 1573 1573 1573 1572 1572 1572 1572 1571 1571 1571 1571 1571 1571 1570 1571 1572 1571 1571 1571 1572 1571 1571 1571 1571 1571 1571 1571 1571 1571 1571 1571 1571 1571 1570 1570 1570
1535 1536 1538 1539 1540 1542 1543 1544 1545 1547 1548 1550 1551 1551 1553 1554 1555 1556 1557 1558 1558 1559 1560 1561 1561 1561 1562 1563 1563 1564 1564 1564 1564 1565 1565 1566 1567 1567 1567 1568 1568 1569 1571 1571 1572 1573 1573 1573 1573 1574 1574 1574 1573 1573 1573 1573 1573 1573 1572 1572 1572 1572 1571 1573 1573 1573 1572 1572 1573 1572 1572 1572 1571 1571 1572 1572 1572 1572 1572 1572 1572 1572 1572 1571 1571
1535 1537 1539 1540 1541 1542 1543 1543 1545 1547 1548 1550 1551 1552 1553 1554 1555 1556 1557 1558 1559 1560 1561 1561 1562 1562 1563 1563 1564 1565 1565 1565 1565 1565 1566 1566 1567 1567 1568 1568 1569 1570 1571 1572 1573 1573 1574 1574 1574 1574 1574 1574 1574 1574 1574 1574 1574 1574 1573 1573 1573 1573 1573 1575 1575 1574 1574 1574 1573 1573 1572 1572 1572 1572 1572 1572 1572 1572 1572 1572 1572 1572 1572 1572 1572
1535 1537 1539 1540 1541 1542 1542 1544 1546 1547 1548 1549 1551 1552 1553 1554 1556 1557 1558 1559 1560 1561 1561 1562 1563 1563 1564 1564 1565 1566 1567 1567 1567 1566 1566 1567 1567 1568 1568 1569 1569 1570 1571 1572 1573 1574 1575 1575 1575 1575 1575 1575 1575 1574 1574 1574 1574 1574 1575 1575 1574 1574 1575 1576 1576 1576 1575 1575 1575 1574 1574 1573 1573 1573 1573 1573 1573 1573 1573 1573 1573 1573 1573 1572 1572
1535 1537 1538 1540 1540 1541 1543 1544 1546 1547 1548 1550 1551 1552 1553 1555 1556 1558 1558 1559 1560 1561 1562 1563 1563 1564 1564 1565 1566 1567 1567 1568 1568 1567 1567 1567 1567 1568 1568 1569 1569 1570 1571 1572 1573 1575 1575 1576 1576 1576 1576 1576 1575 1575 1575 1575 1575 1575 1576 1575 1575 1577 1577 1576 1577 1577 1577 1576 1576 1576 1575 1575 1574 1574 1574 1573 1573 1573 1573 1573 1573 1573 1573 1573 1572
1536 1537 1538 1539 1540 1541 1543 1544 1546 1547 1548 1550 1551 1552 1553 1555 1556 1558 1559 1559 1560 1561 1562 1563 1564 1564 1565 1565 1566 1566 1567 1568 1568 1568 1567 1567 1567 1568 1568 1569 1570 1570 1571 1572 1573 1575 1576 1576 1576 1576 1576 1576 1576 1577 1577 1577 1576 1576 1576 1576 1577 1578 1577 1577 1578 1578 1578 1577 1576 1576 1576 1576 1575 1575 1575 1574 1574 1574 1573 1573 1573 1573 1573 1573 1573
1536 1537 1538 1539 1540 1541 1543 1545 1546 1547 1548 1549 1551 1553 1554 1555 1556 1557 1558 1559 1560 1561 1562 1563 1563 1564 1565 1565 1566 1566 1567 1567 1567 1568 1568 1568 1568 1568 1568 1569 1570 1571 1571 1572 1573 1575 1576 1577 1577 1577 1577 1577 1578 1578 1578 1578 1577 1577 1577 1578 1578 1578 1578 1578 1579 1579 1578 1577 1577 1576 1576 1576 1576 1576 1575 1575 1574 1574 1574 1573 1573 1573 1573 1573 1573
1537 1538 1538 1539 1541 1542 1543 1545 1546 1547 1549 1550 1552 1553 1554 1555 1556 1557 1558 1559 1559 1561 1562 1562 1563 1563 1564 1565 1565 1566 1567 1567 1567 1567 1568 1568 1568 1568 1568 1569 1570 1571 1572 1573 1574 1574 1576 1577 1577 1577 1577 1578 1579 1579 1579 1578 1578 1578 1578 1579 1579 1578 1579 1580 1580 1580 1579 1578 1577 1577 1576 1576 1576 1576 1575 1575 1574 1574 1574 1574 1573 1573 1573 1573 1573
1537 1538 1539 1540 1541 1542 1544 1545 1546 1548 1549 1551 1552 1553 1554 1555 1556 1557 1558 1559 1559 1560 1561 1561 1562 1562 1563 1564 1564 1565 1566 1566 1566 1567 1568 1568 1568 1568 1568 1569 1570 1570 1571 1574 1574 1574 1575 1576 1577 1577 1578 1579 1579 1579 1579 1578 1578 1579 1579 1579 1579 1579 1580 1581 1581 1581 1579 1578 1578 1577 1576 1576 1576 1576 1575 1575 1575 1574 1574 1574 1573 1573 1573 1573 1573
1538 1539 1540 1541 1541 1543 1544 1546 1547 1548 1549 1551 1552 1552 1553 1555 1555 1556 1557 1558 1559 1560 1560 1561 1561 1562 1562 1563 1564 1564 1565 1565 1565 1566 1567 1567 1567 1567 1568 1569 1570 1570 1571 1573 1574 1574 1575 1576 1577 1578 1579 1579 1579 1579 1579 1578 1579 1579 1579 1579 1580 1580 1581 1582 1582 1582 1580 1578 1577 1577 1577 1576 1576 1576 1576 1575 1575 1574 1574 1574 1573 1573 1573 1573 1573
1538 1539 1540 1541 1542 1543 1545 1546 1547 1548 1549 1550 1551 1552 1553 1554 1555 1556 1557 1557 1558 1559 1560 1560 1561 1561 1562 1562 1563 1564 1564 1564 1564 1565 1566 1567 1567 1567 1568 1568 1569 1570 1570 1572 1572 1573 1574 1575 1576 1577 1578 1579 1579 1579 1579 1579 1578 1579 1579 1580 1580 1580 1581 1582 1582 1582 1582 1580 1578 1577 1577 1577 1576 1576 1576 1576 1575 1575 1574 1574 1574 1574 1573 1573 1573
1539 1540 1541 1541 1542 1544 1545 1546 1547 1548 1549 1550 1551 1552 1552 1553 1554 1555 1556 1557 1558 1559 1559 1560 1560 1561 1561 1562 1562 1563 1564 1564 1564 1565 1565 1566 1566 1567 1567 1568 1569 1569 1570 1571 1572 1572 1573 1574 1575 1576 1577 1578 1579 1579 1579 1579 1578 1579 1579 1579 1580 1580 1580 1581 1582 1582 1583 1582 1579 1577 1577 1577 1576 1576 1576 1576 1575 1575 1575 1574 1574 1574 1574 1574 1574
1539 1540 1540 1541 1543 1543 1544 1546 1547 1548 1549 1550 1551 1552 1552 1553 1554 1555 1556 1557 1558 1559 1559 1560 1560 1560 1561 1561 1562 1562 1563 1563 1564 1565 1565 1565 1566 1566 1567 1567 1567 1568 1568 1570 1571 1571 1572 1573 1574 1575 1577 1578 1578 1578 1578 1579 1579 1579 1579 1579 1579 1580 1580 1581 1582 1582 1582 1582 1580 1577 1577 1577 1577 1576 1576 1576 1575 1575 1575 1575 1575 1575 1574 1574 1574
1539 1540 1540 1542 1543 1544 1545 1546 1547 1548 1549 1550 1551 1552 1553 1554 1555 1556 1556 1557 1558 1558 1559 1560 1560 1560 1561 1561 1561 1561 1562 1562 1563 1564 1565 1565 1565 1566 1566 1566 1566 1567 1567 1569 1570 1570 1571 1572 1573 1574 1576 1577 1577 1577 1578 1579 1579 1579 1579 1579 1579 1580 1580 1580 1581 1582 1582 1581 1580 1578 1577 1577 1576 1576 1576 1576 1576 1575 1575 1575 1575 1575 1575 1575 1575
1539 1540 1541 1542 1543 1544 1545 1546 1547 1548 1550 1551 1552 1553 1554 1555 1556 1556 1557 1557 1558 1558 1559 1559 1559 1560 1560 1560 1560 1561 1561 1562 1562 1563 1564 1565 1565 1565 1565 1565 1566 1566 1566 1567 1568 1569 1570 1571 1572 1573 1574 1575 1576 1576 1577 1578 1578 1579 1578 1578 1579 1580 1580 1580 1580 1580 1581 1580 1580 1579 1578 1577 1576 1576 1576 1576 1576 1576 1575 1575 1575 1575 1576 1576 1576
1539 1540 1541 1542 1543 1545 1546 1547 1548 1549 1551 1552 1553 1554 1555 1555 1556 1557 1557 1557 1558 1558 1558 1558 1558 1559 1559 1559 1559 1560 1560 1561 1562 1562 1563 1564 1564 1564 1564 1565 1565 1565 1565 1566 1567 1568 1569 1570 1571 1572 1573 1574 1574 1575 1576 1577 1577 1578 1578 1578 1579 1579 1578 1579 1579 1579 1579 1579 1579 1579 1578 1577 1576 1576 1576 1576 1576 1576 1575 1575 1575 1576 1576 1576 1576
1539 1540 1541 1542 1543 1545 1546 1548 1549 1549 1550 1552 1552 1553 1555 1556 1556 1556 1556 1557 1557 1557 1557 1557 1557 1558 1559 1559 1558 1559 1559 1559 1560 1561 1562 1562 1563 1563 1564 1564 1564 1564 1564 1565 1566 1567 1568 1569 1570 1571 1572 1572 1573 1574 1575 1576 1576 1577 1577 1577 1578 1577 1577 1578 1578 1578 1578 1578 1578 1579 1579 1578 1578 1578 1577 1576 1576 1576 1576 1576 1576 1576 1576 1577 1577
1539 1539 1541 1542 1543 1544 1546 1547 1547 1547 1548 1549 1550 1551 1553 1554 1555 1555 1555 1555 1555 1556 1556 1556 1556 1557 1557 1558 1557 1557 1557 1557 1558 1559 1560 1560 1561 1562 1562 1563 1563 1563 1563 1564 1565 1566 1567 1568 1569 1570 1570 1571 1572 1573 1574 1575 1575 1576 1576 1576 1576 1576 1576 1577 1577 1577 1577 1577 1578 1578 1578 1578 1579 1579 1578 1577 1576 1576 1576 1576 1577 1577 1577 1577 1577
1538 1539 1540 1541 1542 1543 1545 1545 1544 1544 1546 1547 1548 1550 1551 1552 1552 1553 1553 1553 1554 1554 1554 1554 1555 1555 1556 1556 1556 1556 1555 1555 1556 1557 1558 1558 1559 1560 1561 1561 1562 1562 1562 1562 1563 1564 1565 1566 1567 1568 1569 1570 1570 1571 1572 1573 1574 1575 1575 1575 1575 1575 1576 1576 1576 1576 1576 1577 1577 1577 1578 1578 1578 1579 1578 1578 1577 1577 1577 1577 1577 1577 1577 1578 1578
1537 1539 1540 1541 1541 1542 1544 1543 1543 1543 1545 1546 1547 1549 1549 1550 1551 1551 1551 1552 1552 1553 1553 1553 1553 1554 1554 1554 1554 1554 1554 1554 1554 1555 1556 1556 1557 1558 1559 1560 1560 1561 1561 1562 1562 1563 1564 1564 1566 1566 1567 1568 1569 1570 1571 1572 1573 1573 1574 1574 1574 1575 1575 1575 1575 1576 1576 1576 1577 1577 1577 1577 1577 1577 1577 1578 1578 1578 1578 1578 1578 1578 1578 1578 1578
1537 1538 1539 1540 1540 1541 1542 1542 1542 1542 1543 1543 1544 1545 1546 1547 1548 1549 1550 1550 1551 1552 1552 1551 1551 1551 1552 1552 1552 1552 1552 1552 1553 1555 1555 1555 1556 1557 1557 1558 1559 1560 1560 1561 1561 1562 1562 1562 1563 1564 1565 1566 1567 1568 1570 1571 1572 1572 1573 1573 1573 1574 1574 1574 1574 1575 1576 1576 1576 1576 1577 1577 1577 1577 1577 1578 1578 1578 1578 1578 1578 1578 1578 1578 1578
1536 1538 1539 1540 1540 1541 1541 1541 1541 1540 1539 1540 1541 1542 1543 1544 1545 1546 1547 1547 1548 1549 1550 1549 1549 1549 1549 1549 1549 1549 1549 1550 1551 1553 1554 1555 1556 1556 1557 1557 1557 1558 1558 1559 1559 1560 1560 1560 1561 1562 1564 1565 1566 1567 1568 1569 1570 1571 1572 1572 1572 1572 1573 1573 1574 1574 1574 1575 1575 1575 1576 1576 1576 1577 1577 1577 1578 1578 1578 1578 1578 1578 1578 1578 1578
1535 1537 1538 1539 1540 1540 1540 1540 1539 1538 1536 1537 1538 1539 1541 1541 1543 1544 1544 1544 1545 1546 1547 1547 1547 1547 1547 1547 1547 1548 1549 1549 1548 1550 1552 1555 1556 1556 1556 1556 1556 1556 1556 1557 1557 1558 1558 1558 1559 1561 1562 1563 1564 1565 1567 1568 1569 1570 1570 1571 1571 1571 1572 1572 1572 1573 1573 1573 1574 1575 1575 1575 1576 1576 1576 1576 1577 1577 1578 1578 1578 1578 1578 1578 1578
1535 1536 1538 1539 1539 1539 1539 1539 1538 1537 1537 1537 1537 1537 1538 1539 1541 1542 1542 1543 1543 1544 1544 1545 1545 1545 1545 1545 1546 1547 1548 1548 1547 1548 1550 1552 1554 1555 1554 1555 1555 1555 1555 1555 1555 1556 1556 1557 1558 1559 1560 1561 1562 1563 1565 1566 1567 1568 1569 1570 1570 1570 1570 1571 1571 1572 1572 1572 1573 1574 1575 1574 1575 1575 1576 1576 1576 1577 1577 1577 1577 1578 1578 1577 1577
1536 1537 1538 1539 1539 1538 1538 1538 1538 1537 1537 1537 1537 1536 1536 1537 1538 1539 1540 1541 1541 1542 1542 1543 1543 1542 1543 1544 1545 1545 1546 1545 1545 1547 1548 1549 1551 1552 1552 1553 1554 1554 1553 1553 1553 1554 1555 1555 1556 1557 1559 1560 1560 1562 1563 1564 1565 1566 1568 1568 1569 1569 1570 1570 1570 1570 1571 1571 1572 1573 1573 1573 1574 1574 1575 1575 1576 1576 1577 1577 1577 1577 1577 1577 1577
1537 1537 1538 1539 1539 1538 1538 1537 1536 1536 1536 1537 1537 1537 1536 1536 1537 1537 1538 1539 1540 1540 1541 1541 1540 1541 1541 1542 1543 1543 1543 1542 1542 1543 1545 1547 1547 1548 1549 1550 1552 1552 1551 1551 1551 1552 1553 1554 1555 1556 1557 1558 1559 1560 1561 1562 1563 1564 1566 1566 1567 1568 1569 1569 1569 1569 1570 1570 1571 1571 1572 1572 1573 1573 1574 1575 1575 1575 1576 1576 1576 1576 1576 1577 1577
1536 1536 1537 1537 1537 1537 1536 1536 1535 1535 1536 1535 1536 1537 1536 1536 1536 1536 1537 1538 1538 1538 1538 1538 1538 1539 1540 1540 1541 1541 1541 1541 1540 1540 1542 1544 1544 1545 1546 1547 1548 1549 1549 1549 1549 1550 1551 1552 1553 1554 1555 1556 1557 1558 1559 1560 1561 1562 1563 1564 1565 1566 1566 1566 1567 1568 1568 1569 1569 1570 1570 1571 1572 1572 1573 1574 1574 1575 1575 1575 1575 1575 1575 1576 1576
1535 1535 1535 1535 1535 1535 1535 1535 1535 1535 1535 1534 1534 1535 1535 1535 1536 1536 1537 1537 1537 1537 1537 1536 1536 1537 1538 1538 1539 1539 1539 1539 1538 1539 1539 1539 1540 1541 1543 1544 1546 1547 1548 1548 1548 1548 1549 1550 1551 1552 1553 1554 1556 1556 1557 1558 1560 1560 1561 1562 1563 1564 1564 1565 1566 1567 1567 1568 1568 1569 1569 1570 1571 1572 1572 1573 1573 1574 1574 1574 1574 1574 1574 1575 1575
1534 1535 1535 1535 1535 1535 1535 1535 1535 1534 1534 1534 1533 1534 1535 1535 1535 1535 1536 1536 1536 1536 1535 1535 1535 1535 1536 1536 1536 1536 1536 1536 1536 1536 1536 1535 1537 1538 1540 1542 1544 1546 1547 1546 1546 1547 1548 1549 1549 1550 1551 1553 1554 1555 1556 1557 1558 1559 1560 1561 1561 1562 1563 1564 1564 1565 1566 1567 1568 1568 1569 1570 1571 1571 1571 1572 1572 1573 1573 1573 1574 1574 1574 1574 1574
1534 1534 1534 1534 1534 1534 1534 1534 1534 1534 1533 1533 1533 1533 1534 1534 1535 1535 1535 1536 1535 1535 1534 1534 1534 1533 1533 1534 1534 1533 1533 1533 1533 1533 1532 1532 1533 1535 1537 1540 1542 1544 1545 1544 1544 1545 1547 1547 1547 1548 1549 1551 1552 1553 1554 1555 1556 1557 1559 1559 1560 1560 1561 1563 1563 1564 1565 1566 1566 1567 1568 1569 1570 1570 1570 1571 1572 1572 1572 1573 1573 1573 1573 1574 1574
1533 1533 1533 1534 1534 1534 1534 1534 1534 1534 1533 1532 1532 1533 1533 1534 1534 1535 1535 1535 1534 1534 1533 1532 1532 1531 1531 1531 1531 1531 1530 1531 1530 1529 1529 1529 1529 1531 1534 1537 1539 1541 1542 1543 1543 1544 1545 1545 1545 1546 1547 1548 1549 1550 1552 1553 1554 1555 1556 1557 1558 1559 1560 1561 1562 1562 1564 1565 1566 1566 1567 1567 1568 1568 1569 1570 1571 1571 1571 1572 1572 1572 1573 1574 1574
1534 1534 1533 1533 1533 1533 1533 1534 1534 1534 1533 1532 1532 1532 1533 1533 1534 1534 1534 1534 1533 1532 1532 1531 1530 1529 1529 1529 1529 1528 1528 1527 1527 1526 1526 1526 1527 1528 1530 1532 1535 1538 1540 1541 1541 1542 1542 1543 1543 1544 1545 1546 1547 1548 1549 1550 1551 1552 1553 1554 1556 1558 1559 1559 1560 1561 1562 1563 1564 1565 1565 1566 1566 1567 1568 1569 1569 1570 1570 1571 1571 1572 1572 1573 1573
1534 1534 1534 1533 1533 1532 1533 1533 1533 1533 1533 1532 1532 1532 1532 1533 1533 1533 1532 1532 1532 1531 1531 1530 1529 1528 1527 1527 1526 1525 1524 1524 1524 1523 1523 1524 1524 1526 1527 1527 1530 1534 1537 1539 1540 1540 1540 1541 1541 1541 1542 1543 1544 1545 1546 1547 1548 1549 1550 1552 1554 1556 1557 1558 1559 1560 1561 1562 1562 1563 1564 1564 1564 1565 1566 1567 1568 1569 1569 1570 1571 1571 1571 1572 1573
1535 1535 1534 1533 1533 1533 1532 1532 1532 1531 1532 1532 1532 1531 1531 1531 1531 1531 1531 1530 1530 1530 1529 1529 1528 1527 1526 1525 1525 1524 1522 1522 1522 1521 1521 1522 1523 1524 1525 1526 1528 1532 1535 1537 1538 1538 1538 1539 1539 1539 1540 1540 1542 1543 1543 1544 1545 1547 1548 1550 1552 1554 1555 1556 1557 1558 1560 1561 1561 1562 1563 1563 1563 1564 1564 1566 1567 1568 1568 1569 1570 1570 1571 1572 1572